Weather Roundup
Issued by NWS Springfield, MO

Home | Current Version | Previous Version | Text Only | Print | Product List | Glossary On
Versions: 1 2 3 4 5 6 7 8 9 10 11 12 13 14 15 16 17 18 19 20 21 22 23 24 25 26 27 28 29 30 31 32 33 34 35 36 37 38 39 40 41 42 43 44 45 46 47 48 49 50
000
NZUS99 KSGF 302359
HRRSGF

HOURLY WEATHER
NATIONAL WEATHER SERVICE SPRINGFIELD MO
700 PM CDT THU JUL 30 2015

......SGF CWA......

CITY           SKY/WX    TMP DP  RH WIND       PRES   REMARKS
SPRINGFIELD    SUNNY     84  63  49 NE9       30.14S
6HR MIN TEMP:  84; 6HR MAX TEMP:  89;

JOPLIN         PTSUNNY   84  64  50 VRB5      30.13S
6HR MIN TEMP:  83; 6HR MAX TEMP:  89;

WEST PLAINS    MOSUNNY   81  65  58 CALM      30.16S
6HR MIN TEMP:  81; 6HR MAX TEMP:  87;

ROLLA          MOSUNNY   83  59  44 CALM      30.14S
6HR MIN TEMP:  83; 6HR MAX TEMP:  87;

OSAGE BEACH    MOSUNNY   82  64  54 CALM      30.15S
BRANSON        PTSUNNY   81  64  57 E5        30.15F

......SURROUNDING SGF CWA......

CITY           SKY/WX    TMP DP  RH WIND       PRES   REMARKS
CHANUTE        PTSUNNY   82  64  54 E8        30.13F
PARSONS        CLOUDY    80  74  81 CALM      30.14S
COFFEYVILLE    PTSUNNY   82  69  64 N7        30.11S
EMPORIA        MOSUNNY   82  63  52 SE6       30.14F
GROVE OK       PTSUNNY   88  68  51 E5        30.12S HX  91
SILOAM SPRINGS CLOUDY    82  64  54 E6        30.12S
HARRISON AR    CLOUDY    81  63  54 E5        30.15S
NEAR YELLVILLE MOSUNNY   82  68  61 CALM      30.11S

......KANSAS AND MISSOURI......

CITY           SKY/WX    TMP DP  RH WIND       PRES   REMARKS
KANSAS CTY INT PTSUNNY   83  66  56 SW3       30.14F
DOWNTOWN KC    MOSUNNY   85  58  39 CALM      30.12F
COLUMBIA       MOSUNNY   84  65  52 W7        30.13F
SEDALIA        MOSUNNY   85  61  44 S6        30.15F
ST JOSEPH      SUNNY     84  67  56 SW5       30.12F
ST LOUIS       PTSUNNY   87  62  43 NW7       30.11S
SPIRIT OF STL  PTSUNNY   84  70  62 W3        30.09F
KIRKSVILLE     SUNNY     84  64  50 W5        30.13F
WICHITA        MOSUNNY   84  67  56 E7        30.13F
TOPEKA         MOSUNNY   84  64  50 E5        30.13F
OLATHE         SUNNY     82  55  39 S3        30.14F

......TENNESSEE......

CITY           SKY/WX    TMP DP  RH WIND       PRES   REMARKS
MEMPHIS        MOSUNNY   87  61  41 N14       30.05S
NASHVILLE      CLEAR     84  61  45 N13       30.05R

......ARKANSAS.......

CITY           SKY/WX    TMP DP  RH WIND       PRES   REMARKS
FAYETTEVILLE   LGT RAIN  79  73  82 CALM      30.13S
FT SMITH       CLOUDY    82  72  71 W6        30.06S
LITTLE ROCK    PTSUNNY   87  61  41 NE9       30.07R

......OKLAHOMA.......

CITY           SKY/WX    TMP DP  RH WIND       PRES   REMARKS
TULSA          CLOUDY    87  73  62 NE8       30.08S HX  94
PONCA CITY     SUNNY     85  71  63 E8        30.10F HX  90
MCALESTER      PTSUNNY   85  73  67 E3        30.08F HX  91
OKLAHOMA CITY  PTSUNNY   87  72  60 NE10      30.09R HX  93

......IOWA............

CITY           SKY/WX    TMP DP  RH WIND       PRES   REMARKS
DES MOINES     MOSUNNY   85  63  47 W7        30.09F
QUAD CITIES    SUNNY     85  64  49 W12       30.04F

......ILLINOIS........

CITY           SKY/WX    TMP DP  RH WIND       PRES   REMARKS
QUINCY         SUNNY     84  64  50 W6        30.10F
CHICAGO        MOSUNNY   85  52  32 W14       29.99F



USA.gov is the U.S. government's official web portal to all federal, state and local government web resources and services.